Temp
3 3 3 2 2 2 2 2 2 2 2 2 2 1 1 1 1 1 1 1 1 1 1 2 3 3 4 5 5 6 6 6 6 6 6 6 6 5 5 5 5 5 5 5 5 5 6 6 5 5 5 5 5 5 5 5 5 5 6 6 6 6 6 7 7 7 7 7 7
3 3 3 3 3 2 2 2 2 2 2 2 2 2 2 2 2 2 2 2 2 2 2 3 3 4 4 5 5 5 6 6 6 6 7 6 6 6 6 6 5 5 5 5 5 5 5 5 5 5 5 5 5 4 5 5 5 5 5 6 6 6 6 6 6 6 7 7 7
3 3 3 3 3 3 3 2 2 2 2 2 2 2 2 2 2 2 2 2 2 3 3 3 4 4 5 5 5 5 6 6 6 6 7 7 7 7 6 6 6 6 6 5 5 5 5 5 5 5 5 5 5 5 4 5 5 5 4 5 5 5 6 6 6 6 6 6 7
3 3 3 3 3 2 2 2 2 2 2 2 3 3 3 3 3 3 3 3 3 3 3 3 4 4 5 5 5 5 6 6 6 6 6 6 6 6 6 6 7 7 6 6 6 5 5 5 5 5 5 5 5 5 4 5 5 5 4 4 4 5 5 5 5 6 6 6 6
3 3 3 2 2 2 2 2 2 2 2 2 3 3 3 3 3 3 3 3 3 3 3 4 4 4 5 5 5 6 6 6 6 6 6 6 6 6 6 6 6 7 7 6 6 6 6 5 5 4 4 4 4 4 4 5 5 5 5 4 4 4 4 4 5 5 5 5 6
2 2 2 2 2 2 2 2 2 2 2 3 3 3 3 3 3 3 3 3 3 3 4 4 4 5 5 5 6 6 6 6 6 6 6 6 6 6 6 6 6 6 6 7 6 6 6 6 5 4 4 4 4 4 4 5 5 5 5 5 4 4 4 4 4 4 5 5 5
2 2 2 2 3 3 2 2 2 2 2 3 3 3 3 3 3 3 3 3 3 4 4 4 4 4 5 5 5 5 6 6 5 5 5 6 6 6 6 6 6 6 6 6 6 6 6 6 5 5 4 4 4 4 4 4 4 5 5 5 5 4 4 4 4 4 4 4 5
2 2 2 2 3 3 3 3 2 2 2 3 3 2 2 3 3 3 3 3 3 3 3 3 4 4 4 4 5 5 5 5 5 5 5 5 5 6 6 6 6 6 6 6 6 6 6 6 5 5 4 4 4 4 4 4 4 4 4 4 5 5 5 4 4 3 3 4 4
3 3 3 3 3 3 3 3 3 3 2 2 2 2 2 2 3 3 3 3 3 3 3 3 4 4 4 4 4 4 4 4 4 4 4 5 5 5 5 5 5 5 5 5 5 5 5 5 5 5 4 4 4 4 4 4 4 4 4 4 4 5 5 5 4 4 3 3 3
3 3 3 3 3 3 3 3 3 3 3 3 2 2 2 2 3 3 3 2 3 3 3 3 3 4 4 4 4 4 4 4 4 4 4 4 4 4 5 5 5 5 5 5 5 5 5 5 5 5 4 4 4 4 4 3 3 3 3 3 4 4 4 5 4 4 4 4 3
2 2 2 3 3 3 3 3 3 3 3 3 3 3 3 3 2 2 2 3 3 3 3 3 3 3 3 3 3 3 3 3 3 3 4 4 4 4 4 4 4 4 4 4 4 4 4 4 4 5 5 4 4 4 4 4 3 3 3 3 3 3 4 4 4 4 4 4 4
2 2 2 2 3 3 3 3 3 3 3 3 3 3 2 2 2 2 3 3 3 3 3 3 3 3 3 3 3 3 3 3 3 3 3 3 3 4 4 4 4 4 4 4 4 4 4 4 4 4 4 4 4 4 4 4 3 3 3 3 3 3 3 3 3 3 4 4 4
1 2 2 2 2 2 3 3 3 3 3 2 2 2 2 2 2 2 2 3 3 3 3 3 3 3 3 3 3 3 3 3 3 3 3 3 3 3 4 4 4 4 4 4 4 3 3 4 3 3 4 4 4 4 3 3 3 3 3 3 3 3 3 3 3 3 3 3 3
1 1 1 1 1 2 2 2 2 2 2 2 2 2 2 2 2 2 2 2 2 2 3 3 3 3 3 3 3 3 3 3 3 3 3 3 3 3 3 3 3 3 3 3 3 3 3 3 3 3 3 3 3 3 3 3 3 3 3 3 3 3 3 3 3 3 3 3 3
1 1 1 1 1 1 1 1 1 1 1 1 1 1 1 1 2 2 2 2 2 2 2 2 3 3 3 3 3 3 3 3 3 3 3 3 3 3 3 3 3 3 3 3 3 3 3 3 3 3 3 3 3 3 3 3 3 3 3 2 3 3 3 3 3 3 3 3 3
1 1 1 1 1 1 1 1 1 1 1 1 1 1 1 1 1 1 1 1 2 2 2 2 2 2 3 3 3 3 3 3 3 3 3 3 3 3 3 3 3 3 3 3 3 3 3 3 3 2 2 2 2 2 3 3 3 3 3 3 2 3 3 3 3 3 3 3 3
1 1 1 1 0 0 0 0 0 0 0 0 0 0 0 1 1 1 1 1 1 1 1 2 2 2 2 2 2 2 3 3 3 3 3 3 2 2 2 2 2 2 2 2 2 3 3 3 3 2 2 2 2 2 2 2 2 3 3 3 3 2 2 2 3 3 3 3 3
1 1 1 0 0 0 0 0 0 0 0 0 0 0 0 0 0 0 0 0 0 1 1 1 1 1 2 2 2 2 2 2 2 2 2 2 2 2 2 2 2 2 2 2 2 2 2 2 2 2 2 2 2 2 2 2 2 2 2 3 3 3 2 2 2 2 3 3 3
1 1 0 0 0 0 0 0 0 0 0 0 0 0 0 0 0 0 0 0 0 0 0 1 1 1 1 1 1 1 1 2 2 2 2 2 2 2 2 2 2 2 2 2 2 2 2 2 2 2 2 2 1 1 1 1 1 2 2 2 2 2 2 2 2 2 2 2 2
1 0 0 0 0 0 0 0 0 0 0 0 0 1 1 0 0 0 0 0 0 0 0 0 0 1 1 1 1 1 1 1 1 1 2 2 2 2 2 2 2 2 2 2 2 2 2 2 2 1 1 1 1 1 1 1 1 1 2 2 2 2 2 2 2 2 2 2 2
0 0 0 0 0 0 0 0 0 0 0 0 1 1 1 1 0 0 0 0 0 0 0 0 0 0 0 0 1 1 1 1 1 1 1 1 1 1 2 2 2 2 2 2 2 2 2 2 1 1 1 0 0 0 1 1 1 1 1 1 2 2 2 2 2 2 2 1 1
0 0 0 0 0 0 0 0 0 0 0 1 1 1 1 1 0 0 0 0 0 0 0 0 0 0 0 0 0 0 0 0 0 1 1 1 1 1 1 1 2 2 2 2 2 2 2 2 1 1 0 0 0 0 0 0 0 1 1 1 1 2 2 2 2 2 2 2 2
0 0 0 0 0 0 0 0 0 0 0 1 0 0 0 0 0 0 0 0 0 0 -0 -0 -0 -0 -0 -0 -0 -0 -0 0 0 0 0 0 1 1 1 1 1 2 2 2 2 2 1 1 0 0 0 -0 0 0 0 0 0 0 0 1 1 1 2 2 2 2 2 2 2
0 0 0 0 0 0 0 0 0 0 0 0 0 0 0 0 0 0 0 0 0 -0 -0 -0 -0 -0 -0 -0 -0 -1 -1 -1 -0 -0 -0 0 0 0 0 1 1 1 1 2 2 1 0 -0 -0 -0 -0 -0 -0 -0 -0 -0 -0 -0 0 0 0 1 1 1 2 2 2 2 2
0 0 0 0 0 0 0 0 0 0 0 0 0 0 0 0 -0 -0 -0 -0 -0 -0 -0 -0 -0 -1 -1 -1 -1 -1 -1 -1 -1 -1 -1 -1 -1 -0 -0 -0 -0 0 1 1 1 1 0 -0 -1 -1 -0 -0 -0 -0 -0 -0 -0 -0 -0 -0 -0 0 0 1 1 2 2 2 2
0 0 0 0 0 0 0 0 0 0 0 0 0 -0 -0 -0 -0 -0 -0 -0 -0 -0 -0 -1 -1 -1 -1 -1 -1 -1 -1 -1 -1 -1 -1 -1 -1 -1 -1 -1 -1 -1 -0 -0 0 1 1 0 0 -0 -0 -0 -0 -0 -0 -0 -0 -0 -0 -0 -0 -0 -0 -0 0 1 1 2 2
0 0 0 0 0 0 0 0 0 0 0 -0 -0 -0 -0 -0 -0 -0 -0 -0 -0 -0 -0 -1 -1 -1 -1 -1 -1 -1 -1 -1 -1 -2 -2 -2 -2 -1 -1 -2 -2 -2 -1 -1 -1 -1 -0 0 0 0 -0 -0 -1 -1 -1 -1 -1 -1 -1 -1 -1 -1 -1 -1 -0 -0 1 1 1
0 0 0 0 0 0 0 0 0 -0 -0 -0 -0 -0 -0 -0 -0 -0 -0 -0 -0 -0 -1 -1 -1 -1 -1 -1 -1 -1 -1 -1 -2 -2 -2 -2 -2 -2 -2 -2 -2 -2 -2 -2 -2 -2 -1 -1 -0 -0 -0 -0 -1 -1 -1 -1 -1 -1 -1 -1 -1 -1 -1 -1 -1 -1 -0 0 1
0 0 0 0 0 0 0 0 -0 -0 -0 -0 -0 -0 -0 -0 -0 -0 -1 -1 -1 -1 -1 -1 -1 -1 -1 -1 -1 -1 -1 -2 -2 -2 -2 -2 -2 -2 -2 -2 -2 -2 -2 -2 -2 -2 -2 -2 -2 -1 -1 -1 -1 -1 -1 -1 -1 -1 -1 -1 -1 -1 -1 -1 -1 -1 -1 -1 -0
0 0 0 0 0 0 -0 -0 -0 -0 -0 -0 -0 -0 -0 -0 -0 -1 -1 -1 -1 -1 -1 -1 -1 -1 -1 -1 -1 -1 -1 -2 -2 -2 -2 -2 -2 -2 -2 -2 -2 -2 -2 -2 -3 -3 -2 -2 -2 -2 -2 -1 -1 -1 -1 -1 -1 -1 -1 -1 -1 -1 -1 -1 -1 -1 -1 -1 -1
-0 -0 -0 -0 -0 -0 -0 -0 -0 -1 -1 -1 -1 -1 -1 -1 -1 -1 -1 -1 -1 -1 -1 -2 -2 -2 -1 -1 -2 -2 -2 -2 -2 -2 -2 -2 -2 -2 -2 -2 -2 -2 -2 -2 -3 -3 -3 -2 -2 -2 -2 -2 -2 -2 -1 -1 -1 -2 -2 -2 -2 -1 -1 -1 -1 -1 -1 -1 -1
-0 -0 -0 -1 -1 -1 -1 -1 -1 -1 -1 -1 -1 -1 -1 -1 -1 -1 -1 -1 -1 -2 -2 -2 -2 -2 -2 -2 -2 -2 -2 -2 -2 -2 -2 -2 -2 -2 -2 -2 -2 -2 -2 -2 -3 -3 -3 -2 -2 -2 -2 -2 -2 -2 -2 -2 -2 -2 -2 -2 -2 -2 -2 -2 -2 -2 -2 -2 -2
-0 -1 -1 -1 -1 -1 -1 -1 -1 -1 -1 -1 -1 -1 -1 -1 -1 -1 -1 -1 -2 -2 -2 -2 -2 -2 -2 -2 -2 -2 -2 -2 -2 -2 -2 -2 -2 -2 -2 -2 -2 -2 -2 -2 -3 -3 -3 -2 -2 -2 -2 -2 -2 -2 -2 -2 -2 -2 -2 -2 -2 -2 -2 -2 -2 -2 -2 -2 -2
-1 -1 -1 -1 -1 -1 -1 -1 -1 -1 -1 -1 -1 -1 -1 -1 -1 -1 -2 -2 -2 -2 -2 -2 -2 -2 -2 -2 -2 -2 -2 -2 -2 -2 -2 -2 -3 -3 -3 -3 -2 -2 -2 -3 -3 -3 -3 -3 -2 -2 -2 -2 -2 -2 -2 -2 -2 -2 -2 -2 -2 -2 -2 -2 -2 -2 -2 -2 -2
-1 -1 -2 -2 -2 -2 -2 -2 -2 -2 -2 -2 -1 -1 -1 -2 -2 -2 -2 -2 -2 -2 -2 -2 -2 -2 -2 -3 -3 -3 -3 -3 -3 -3 -3 -3 -3 -3 -3 -3 -2 -2 -2 -3 -3 -3 -3 -3 -3 -2 -2 -2 -2 -2 -2 -2 -2 -3 -3 -2 -2 -2 -2 -2 -2 -2 -2 -2 -2
-2 -2 -2 -2 -2 -2 -2 -2 -2 -2 -2 -2 -2 -2 -2 -2 -2 -2 -2 -2 -2 -3 -2 -2 -2 -2 -3 -3 -3 -3 -3 -3 -3 -3 -3 -3 -3 -3 -3 -3 -3 -3 -2 -3 -3 -3 -3 -3 -3 -3 -2 -2 -2 -2 -3 -3 -3 -3 -3 -3 -3 -3 -2 -2 -2 -2 -2 -2 -2
-2 -2 -2 -2 -2 -2 -2 -2 -2 -2 -2 -2 -2 -2 -2 -2 -2 -2 -2 -2 -3 -3 -3 -3 -3 -3 -3 -3 -3 -3 -3 -3 -3 -3 -3 -3 -3 -3 -3 -3 -3 -3 -3 -3 -3 -3 -3 -3 -3 -3 -2 -2 -3 -3 -3 -3 -3 -3 -3 -3 -3 -3 -3 -3 -2 -2 -2 -2 -2
-2 -2 -2 -2 -2 -2 -2 -2 -2 -2 -2 -2 -2 -2 -2 -2 -2 -2 -2 -3 -3 -3 -3 -3 -3 -3 -3 -3 -3 -3 -3 -3 -3 -3 -3 -3 -4 -4 -4 -4 -4 -3 -3 -3 -3 -3 -3 -3 -3 -3 -3 -3 -3 -3 -3 -3 -3 -3 -3 -3 -3 -3 -3 -3 -3 -3 -2 -2 -2
-2 -2 -2 -2 -2 -2 -2 -2 -2 -2 -2 -2 -2 -2 -2 -2 -3 -3 -3 -3 -3 -3 -3 -3 -3 -3 -3 -3 -3 -3 -3 -3 -3 -3 -4 -4 -4 -4 -4 -4 -4 -4 -4 -4 -4 -4 -3 -3 -3 -3 -3 -3 -3 -3 -3 -3 -3 -3 -3 -3 -3 -3 -3 -3 -3 -3 -3 -2 -2
-2 -2 -2 -2 -2 -2 -2 -2 -2 -2 -2 -3 -3 -3 -3 -3 -3 -3 -3 -3 -3 -3 -3 -3 -3 -3 -3 -4 -4 -4 -4 -4 -4 -4 -4 -4 -4 -4 -4 -4 -4 -4 -4 -4 -4 -4 -4 -4 -3 -3 -3 -3 -3 -3 -3 -3 -3 -3 -3 -3 -3 -3 -3 -3 -3 -3 -3 -3 -2
-2 -2 -2 -2 -2 -2 -2 -2 -2 -2 -2 -3 -3 -3 -3 -3 -3 -3 -3 -3 -3 -3 -3 -4 -4 -4 -4 -4 -4 -4 -4 -4 -4 -4 -4 -4 -4 -4 -4 -4 -4 -4 -4 -4 -4 -4 -4 -4 -4 -3 -3 -3 -3 -3 -3 -3 -3 -3 -3 -3 -3 -3 -3 -3 -3 -3 -3 -3 -3
Height
789 789 788 788 787 787 786 785 785 784 784 783 782 781 781 780 780 779 778 777 777 776 775 774 774 773 771 770 769 768 767 766 764 764 763 762 761 760 759 759 759 758 757 756 755 755 754 753 752 751 750 750 749 748 748 747 746 746 745 744 743 742 741 740 740 740 740 740 739
791 790 789 789 789 788 787 786 786 785 784 784 783 782 782 781 780 780 779 779 778 777 776 775 774 773 772 771 770 769 768 767 766 765 764 763 762 761 760 759 759 758 758 757 756 756 755 755 754 753 752 751 750 750 749 748 747 746 745 745 744 743 743 742 742 741 741 741 740
792 791 790 790 789 789 788 787 787 786 785 785 784 783 783 782 781 780 780 779 779 778 777 776 775 774 773 772 771 770 769 768 767 766 765 764 763 762 761 760 759 759 758 757 757 756 756 755 755 754 754 753 752 751 750 749 749 747 746 746 745 745 744 744 743 743 742 742 741
793 792 791 791 790 789 789 789 788 787 786 786 785 784 783 783 782 781 781 780 779 778 778 777 776 775 774 773 772 771 770 769 768 767 766 765 764 764 762 761 760 759 758 758 757 756 756 756 755 755 755 754 753 752 752 751 750 749 748 747 746 745 745 745 745 744 744 743 742
794 793 792 792 791 791 790 790 789 788 788 787 786 785 784 783 783 782 781 780 779 779 778 778 777 776 775 774 773 772 771 770 769 768 767 767 766 765 764 763 761 760 759 758 757 757 756 755 755 755 755 754 754 753 753 752 751 750 749 748 747 746 746 745 745 745 745 744 743
794 794 793 793 792 792 791 790 790 789 789 788 786 785 784 784 783 782 781 781 780 779 779 778 777 776 775 774 774 773 772 771 770 769 768 767 767 766 765 764 763 762 761 759 759 757 756 755 755 755 754 754 754 753 753 752 751 750 750 749 748 747 747 746 746 745 745 745 744
795 795 794 793 793 792 792 791 790 790 789 788 787 786 785 785 784 783 782 782 781 780 779 778 777 777 776 775 774 773 772 772 771 770 769 768 767 766 766 765 764 763 762 761 760 759 758 757 756 755 754 754 753 753 752 752 751 750 750 749 749 748 748 747 747 746 746 745 745
796 795 795 794 793 793 792 791 791 790 789 789 788 787 786 785 784 784 783 782 781 780 779 779 778 777 776 775 774 774 773 772 771 771 770 769 768 767 766 765 765 764 763 762 761 760 759 758 757 756 755 755 754 753 753 752 751 751 750 750 749 749 749 748 748 747 747 746 746
796 796 795 794 794 793 793 792 791 791 790 789 789 788 787 786 785 784 784 783 782 781 780 779 778 777 777 776 775 774 773 773 772 771 770 769 769 768 767 766 765 764 764 763 762 761 760 759 759 758 757 756 755 755 754 753 752 751 751 750 750 750 749 749 748 748 747 747 746
797 796 795 795 794 794 793 792 792 791 790 790 789 789 788 787 786 785 784 784 783 782 780 779 779 778 777 776 775 774 774 773 772 771 771 770 769 768 767 766 766 765 764 763 762 762 761 760 759 759 758 757 756 755 755 754 753 752 752 751 750 750 750 749 749 748 748 747 747
797 797 796 795 794 794 793 792 792 791 791 790 789 789 788 787 787 786 785 784 783 782 781 780 779 778 777 776 775 775 774 773 773 772 771 770 769 769 768 767 766 765 764 764 763 762 761 760 759 759 758 757 756 756 755 754 753 753 752 752 751 750 750 749 749 748 748 747 747
798 797 796 796 795 794 794 793 792 792 791 790 790 789 789 788 787 786 786 784 783 782 781 781 779 779 778 777 776 775 774 774 773 772 771 770 769 769 768 767 766 766 765 764 764 763 762 761 760 759 758 758 757 756 755 754 754 753 752 752 751 751 750 750 749 749 748 747 746
798 797 797 796 795 794 794 793 793 792 791 791 790 790 789 789 788 787 786 785 784 783 782 781 780 779 778 777 776 775 774 774 773 772 771 770 769 769 768 767 766 766 765 764 764 763 762 761 760 759 759 758 757 756 756 755 754 753 752 752 751 751 751 750 750 749 748 747 747
798 798 797 796 795 795 794 794 793 792 792 791 790 790 789 789 788 787 786 785 784 784 782 781 780 779 779 778 777 776 775 774 773 772 771 770 769 769 768 767 766 766 765 764 764 763 763 762 761 760 759 758 758 757 756 755 755 754 753 752 751 751 750 750 750 749 748 748 747
798 797 797 796 795 795 794 794 793 793 792 791 791 790 790 789 789 788 787 786 785 784 783 782 781 780 779 778 777 776 775 774 773 772 771 770 769 769 768 767 766 766 765 764 764 764 763 762 761 760 760 759 758 757 756 756 755 754 753 753 752 751 750 750 749 749 748 748 747
798 797 796 796 795 795 794 794 793 793 792 791 791 790 790 789 789 788 787 786 785 784 783 782 781 780 779 778 777 776 775 774 773 772 771 770 769 768 768 767 766 765 765 764 764 763 763 762 761 761 760 759 758 758 757 756 755 754 754 753 752 751 750 749 749 748 748 747 746
797 796 796 795 795 794 794 794 793 792 792 791 791 790 790 789 789 788 787 786 785 784 783 782 781 780 779 778 777 776 775 774 773 772 771 770 769 769 768 767 766 765 765 764 764 763 762 762 761 760 760 759 758 758 757 756 755 755 754 753 752 751 750 749 748 748 747 746 746
796 796 795 795 794 794 794 793 793 792 791 791 790 790 789 789 788 788 787 786 785 784 783 782 781 780 779 779 778 777 776 775 774 773 772 771 770 769 768 767 766 765 764 764 763 762 762 761 760 760 759 759 758 757 757 756 755 754 754 753 752 751 750 749 748 747 746 746 745
796 795 795 795 794 794 793 793 792 791 791 790 790 789 789 788 788 787 786 785 785 784 783 782 781 780 779 779 778 777 776 775 774 773 772 771 770 769 768 767 766 765 764 763 763 762 761 760 760 759 758 758 757 756 756 755 755 754 753 752 751 750 750 749 748 747 746 745 745
795 795 794 794 794 794 793 792 792 791 790 790 789 789 788 788 787 787 786 785 784 783 782 781 780 779 779 778 777 776 776 775 774 773 772 771 770 769 768 767 766 765 764 763 762 761 760 759 759 758 758 757 756 755 755 754 754 753 752 751 751 750 749 749 748 747 746 745 744
795 794 794 794 794 793 793 792 791 790 790 789 789 788 788 788 787 786 785 785 784 783 782 781 780 779 778 777 776 776 775 774 774 773 772 771 770 769 768 767 766 764 764 763 762 760 759 759 758 757 757 756 755 755 754 753 752 752 751 750 750 749 749 748 747 746 745 745 744
794 794 794 793 793 792 792 791 790 790 789 789 789 788 788 787 787 786 785 784 783 782 781 780 780 779 778 777 776 775 774 774 773 772 771 770 769 769 768 767 766 764 763 762 761 760 759 758 757 756 756 755 755 754 753 752 751 750 750 749 748 748 747 747 746 746 745 744 744
794 793 793 793 792 792 791 790 790 789 789 789 788 788 787 787 786 785 784 784 783 782 781 780 779 778 777 776 775 774 774 773 772 771 771 770 769 768 767 766 765 764 763 762 761 759 759 758 757 756 755 755 754 753 752 751 750 750 749 748 747 746 746 745 745 745 744 743 743
793 793 792 792 791 791 790 789 789 789 788 788 788 787 787 786 785 784 784 783 782 781 780 779 778 777 776 775 775 774 773 772 771 770 769 769 768 767 767 766 765 764 763 762 761 760 759 758 757 756 755 754 753 752 751 750 750 749 748 747 746 745 744 744 743 743 742 742 741
792 792 791 791 790 789 789 789 788 788 788 788 787 787 786 785 784 784 783 782 781 780 779 778 777 776 775 774 774 773 772 771 770 769 768 767 766 766 765 764 764 763 762 761 760 760 759 759 758 756 755 754 753 751 750 749 748 748 747 746 745 744 743 742 741 741 741 740 740
791 790 790 789 789 789 788 788 788 788 787 787 787 786 785 784 784 783 782 781 780 779 778 777 776 775 774 773 772 771 771 770 769 768 767 766 765 764 764 763 763 762 761 760 760 759 758 758 757 756 755 754 752 751 750 748 747 746 745 745 744 743 741 740 740 739 739 738 738
790 789 789 788 788 788 788 787 787 787 787 786 786 785 784 784 783 782 781 780 779 778 777 776 775 774 773 772 771 770 770 769 768 767 766 765 764 763 762 762 761 760 759 759 759 758 757 756 755 755 754 753 752 750 749 747 746 745 744 743 742 741 740 739 738 737 737 736 736
789 788 788 787 787 787 787 787 787 786 786 785 785 784 783 782 781 780 780 779 778 777 776 775 774 773 772 771 771 770 769 768 767 766 765 764 763 762 761 760 759 759 758 758 757 756 756 755 754 753 753 752 750 749 748 747 745 744 743 742 741 740 739 738 737 736 735 735 734
787 787 786 786 786 786 786 786 786 785 785 784 784 783 782 781 780 779 779 778 777 776 775 774 773 772 771 770 769 769 768 767 766 765 764 763 762 761 760 759 758 757 757 756 755 755 754 754 753 752 751 750 750 748 747 745 744 743 742 741 740 739 738 737 736 735 734 733 732
786 786 786 786 785 785 785 785 785 784 784 783 782 782 781 780 779 779 778 777 776 775 774 773 772 771 770 769 768 767 766 765 765 764 763 762 761 760 759 758 757 756 755 755 754 754 753 752 751 750 750 749 748 747 746 744 743 742 741 740 738 737 736 735 734 733 732 731 731
786 785 785 785 785 785 784 784 784 783 783 782 781 780 779 779 778 777 776 776 774 774 773 772 771 770 769 768 767 766 765 764 763 762 761 760 759 758 757 756 755 754 754 753 752 752 751 750 750 749 748 748 747 746 745 743 742 740 739 738 737 736 735 734 733 732 731 730 730
785 785 785 784 784 784 784 783 783 782 781 780 780 779 778 777 777 776 775 774 773 772 771 770 769 768 767 766 765 764 763 762 761 760 760 759 758 757 755 755 753 752 752 751 751 750 750 749 748 747 747 746 745 744 743 742 740 739 738 736 735 734 733 732 731 730 729 729 728
784 784 784 784 783 783 782 782 781 781 780 779 778 778 777 776 775 774 774 773 772 771 770 769 768 767 765 764 764 762 761 761 760 759 758 757 756 755 754 753 751 751 750 750 749 749 748 747 746 745 745 744 743 742 741 740 739 738 736 735 734 732 732 731 730 729 728 727 726
784 783 783 783 782 782 781 780 780 779 778 778 777 776 775 774 774 773 772 771 770 769 768 767 766 765 764 763 762 761 760 759 758 757 756 755 755 753 752 750 750 749 748 748 747 747 746 745 745 744 743 742 741 740 739 738 737 735 735 733 732 730 730 729 728 727 726 725 725
782 782 782 781 781 780 779 779 778 778 777 776 775 774 774 773 772 771 770 769 769 768 766 765 765 764 763 761 761 759 758 757 756 755 754 753 753 751 750 748 747 746 746 746 745 745 744 744 743 742 741 740 739 738 737 735 735 733 732 731 730 729 728 727 726 725 724 723 723
781 781 780 779 779 779 778 777 777 776 775 774 773 773 772 771 770 769 769 768 767 766 764 764 763 762 761 759 759 758 757 755 754 753 752 751 751 750 748 746 745 744 744 744 743 743 742 741 741 740 740 739 737 736 735 734 732 731 730 729 727 726 725 725 724 723 722 721 720
780 779 779 778 777 777 776 775 775 774 774 773 772 771 770 769 768 768 767 766 765 764 763 762 761 760 759 758 757 756 755 754 753 751 750 750 749 748 746 744 743 742 741 741 740 740 740 740 739 738 738 737 735 734 733 731 730 729 728 726 725 724 723 723 722 721 720 719 718
778 778 777 776 776 775 774 774 773 773 772 771 770 769 769 768 767 766 765 765 764 762 761 760 759 758 757 756 755 754 752 752 751 750 748 747 747 746 745 743 741 740 739 739 738 738 738 737 737 736 736 735 734 732 731 730 728 727 725 724 723 722 721 720 720 719 718 717 716
777 776 776 775 774 774 773 772 772 771 770 769 769 768 767 766 765 764 764 763 762 761 760 759 757 756 755 755 753 752 750 749 749 748 747 745 745 744 743 741 739 737 737 736 736 735 735 735 734 734 734 733 732 730 729 728 726 725 723 722 721 720 719 718 718 717 715 714 714
775 774 774 774 773 772 771 771 770 769 769 768 767 766 765 764 764 763 762 761 760 759 759 757 756 755 754 753 752 750 748 747 746 745 745 743 742 742 741 740 737 735 734 734 733 733 733 732 731 731 731 730 729 728 727 726 724 722 721 720 719 718 716 715 715 715 713 712 711
774 773 772 772 771 771 770 769 768 768 767 766 765 764 764 763 762 761 760 759 759 758 757 755 754 753 752 751 750 748 746 745 743 742 742 741 740 739 738 737 735 733 732 731 731 730 730 729 729 728 728 728 727 726 725 724 722 720 719 718 717 716 715 714 713 712 711 710 709
Wind_Speed
21 22 21 21 22 22 22 22 22 22 23 23 23 23 23 23 23 23 23 24 24 23 24 24 25 25 25 25 25 25 25 26 26 26 27 27 28 28 28 29 28 28 28 28 28 28 26 25 23 23 23 23 23 24 24 24 23 23 23 23 23 23 22 21 20 20 20 21 21
21 21 21 21 21 21 22 22 22 23 23 23 23 23 23 23 23 23 24 24 24 24 24 25 25 25 25 25 25 25 25 25 25 25 25 26 26 27 28 28 28 28 28 28 28 28 27 26 25 24 24 23 23 24 24 23 23 23 23 23 23 23 22 21 20 19 19 19 19
20 20 20 21 21 22 22 23 23 23 23 23 23 23 23 23 23 23 23 24 24 24 25 25 25 24 24 24 24 24 24 24 24 24 24 24 25 26 26 27 27 27 27 27 28 27 27 27 26 26 25 24 24 24 24 23 22 22 23 23 22 22 22 22 20 19 19 18 18
20 20 20 21 21 22 22 22 22 22 22 22 23 23 23 23 23 23 23 23 24 24 25 25 24 24 24 24 24 24 24 24 23 23 23 23 24 24 25 25 26 26 27 27 27 27 27 27 27 26 26 25 25 25 24 23 21 21 21 22 22 22 22 21 20 19 19 18 17
20 20 20 20 21 21 21 21 22 22 22 22 22 22 22 22 23 23 23 23 24 24 24 23 23 23 23 23 23 23 23 23 23 23 23 23 23 23 23 24 24 25 25 26 26 27 27 27 27 26 26 25 25 25 24 23 22 21 20 20 21 21 21 21 21 20 19 18 17
19 19 19 19 20 20 20 21 21 22 22 22 22 22 23 22 22 23 23 23 23 22 23 23 23 23 22 22 22 22 23 23 23 23 23 23 23 23 22 23 23 23 24 24 25 25 26 27 26 26 26 26 25 25 25 24 23 22 21 20 20 20 21 21 21 20 19 19 18
18 18 18 19 19 19 20 20 21 21 21 21 22 22 23 22 22 23 23 22 22 22 22 23 23 23 22 22 22 22 22 22 23 23 23 23 23 23 22 22 22 22 22 22 23 24 24 25 25 25 25 25 25 25 25 25 25 24 22 21 19 19 19 20 20 20 20 20 19
17 17 17 18 18 18 19 19 20 20 21 21 22 22 22 22 22 22 22 22 22 23 23 23 22 22 22 22 22 22 22 22 22 23 23 23 23 23 23 22 22 22 21 21 21 22 22 22 23 24 24 24 24 24 25 25 25 25 24 23 21 19 18 18 19 19 20 20 19
15 16 16 16 16 17 17 18 18 19 20 20 21 21 21 21 22 22 22 22 23 22 22 22 22 22 22 22 22 23 23 23 23 23 23 23 23 23 23 23 23 22 22 21 21 20 20 21 21 22 22 23 23 23 23 24 24 24 24 24 23 20 18 17 17 18 18 19 19
15 15 15 15 15 15 16 16 16 17 18 19 19 19 20 20 21 21 22 22 21 21 22 22 22 22 22 22 23 23 23 23 23 23 23 23 23 23 23 23 23 23 23 22 21 20 20 20 20 20 20 21 21 22 22 23 23 23 23 23 23 22 21 19 17 17 17 18 19
14 14 14 14 14 14 14 14 15 15 16 17 18 18 19 19 20 20 20 20 20 21 21 21 22 22 22 22 23 23 23 23 23 23 23 23 23 23 23 23 23 23 23 22 22 21 20 20 19 19 19 19 20 21 22 22 22 22 22 22 22 23 22 21 20 18 18 17 17
13 13 13 12 12 12 12 13 13 14 15 16 16 17 18 18 19 19 19 19 20 20 20 21 21 22 22 22 22 23 23 23 23 23 23 23 23 23 23 23 23 23 23 23 22 22 21 20 20 19 19 19 19 20 21 22 22 22 22 22 22 22 22 22 22 21 19 18 17
13 13 12 12 12 12 12 12 13 13 14 15 16 16 17 17 18 18 18 19 19 19 19 20 20 21 21 22 22 22 23 23 23 23 23 23 23 23 23 23 23 23 23 23 22 22 21 20 20 19 19 19 19 20 21 22 22 22 22 22 22 21 21 21 21 21 21 20 19
13 13 13 13 12 12 12 13 13 13 14 14 15 15 16 16 17 17 18 18 18 19 19 19 19 20 21 21 21 22 22 22 23 23 23 23 24 24 24 23 23 23 23 22 22 22 21 20 20 19 19 19 19 19 20 21 22 22 22 22 22 21 21 20 20 20 20 20 20
14 14 13 13 13 13 13 13 14 14 14 14 15 15 15 16 16 17 17 17 17 18 18 18 19 19 19 20 21 21 21 22 22 23 23 24 24 24 24 24 24 23 23 22 22 21 21 20 19 19 19 20 20 20 20 20 21 21 21 21 21 21 20 20 20 20 20 20 20
15 14 14 14 13 13 14 14 14 14 14 15 15 15 15 16 16 17 17 17 17 17 17 18 18 18 19 19 20 20 21 21 22 23 23 24 24 24 25 25 25 24 24 23 22 22 21 20 19 19 19 20 20 21 21 21 21 20 20 20 20 20 20 19 19 19 19 19 19
15 15 14 14 14 14 14 14 14 14 15 15 15 16 16 17 17 17 18 18 18 18 18 18 18 18 18 19 19 20 20 21 21 22 23 24 24 24 25 25 25 25 24 24 23 22 21 20 19 19 19 20 20 21 21 21 21 20 20 20 20 19 19 19 19 19 19 19 19
15 15 14 14 14 14 14 14 14 15 15 16 16 16 17 17 18 18 18 18 19 19 19 19 19 19 19 19 19 20 20 20 21 22 22 23 23 24 24 25 25 25 25 25 24 23 22 21 20 19 19 20 21 21 22 21 21 21 20 20 20 19 19 19 18 18 18 19 19
16 15 14 14 14 14 14 14 14 15 15 16 16 17 17 18 18 19 19 19 19 20 20 20 20 20 20 19 19 20 20 20 20 21 21 22 22 23 23 24 24 25 25 25 25 24 23 22 21 21 21 21 21 22 22 22 22 21 21 21 20 20 19 19 19 18 18 18 19
16 15 14 14 13 13 13 14 14 15 15 16 16 17 17 18 18 19 19 20 20 20 21 21 21 21 21 21 20 20 20 20 20 21 21 21 22 22 23 24 24 24 25 25 25 25 24 24 23 23 23 23 23 23 23 23 23 23 22 22 21 21 20 20 19 18 18 18 18
15 15 14 13 13 13 13 14 14 14 15 15 16 17 17 18 18 19 19 20 20 20 21 21 21 22 22 22 22 22 21 21 21 21 21 21 21 22 22 23 24 24 24 25 25 25 25 25 25 24 24 24 24 24 24 24 24 24 24 23 22 22 21 20 20 19 19 18 18
15 15 14 13 13 13 13 13 14 14 15 15 16 16 17 18 18 19 19 20 20 21 21 21 21 22 22 22 22 23 23 22 22 22 22 22 22 22 22 22 23 23 24 25 25 26 26 26 26 25 25 25 25 25 25 25 25 25 25 25 24 23 23 22 21 20 19 19 18
15 14 14 13 13 13 13 13 14 14 15 15 16 17 17 18 18 19 20 20 21 21 21 22 22 22 22 22 23 23 23 24 24 23 23 23 23 22 22 22 23 23 24 24 25 26 26 26 26 26 26 26 26 26 26 26 26 26 26 26 26 25 25 24 23 22 21 20 19
15 14 14 13 13 13 13 14 14 15 15 16 17 17 18 19 19 20 20 21 21 22 22 23 23 23 23 23 23 24 24 24 25 25 25 24 24 24 24 23 23 23 23 24 24 25 25 24 24 25 25 26 26 27 27 26 26 26 26 26 26 26 26 26 25 24 23 23 22
15 14 14 14 14 14 14 14 15 16 16 17 17 18 19 19 20 21 22 22 22 23 23 24 24 24 24 25 25 25 25 25 25 26 26 26 26 26 26 25 25 24 24 24 24 24 24 23 23 23 24 25 25 26 27 27 27 26 26 26 26 27 27 27 27 26 25 25 24
15 15 14 14 14 14 14 15 15 16 17 17 18 19 20 20 21 22 22 23 23 24 24 25 25 25 25 26 26 26 26 26 26 26 26 27 27 28 27 27 27 26 26 26 25 24 24 24 23 23 23 24 25 25 26 27 27 27 27 27 27 27 27 27 28 28 27 27 26
15 15 15 14 14 14 14 15 16 16 17 18 19 20 20 21 22 22 23 23 24 24 25 25 25 26 26 26 26 26 26 27 26 26 27 27 28 28 28 28 28 28 27 27 26 25 25 25 24 24 24 24 24 25 25 26 27 27 27 28 28 27 27 27 27 28 29 29 28
15 15 15 15 14 14 15 15 16 17 18 19 20 20 21 21 22 23 23 24 24 25 25 25 26 26 26 26 26 27 27 27 27 27 27 27 28 28 29 29 29 29 28 28 26 25 25 25 24 24 24 24 24 25 25 25 26 27 27 28 28 28 27 27 28 28 29 29 29
15 15 15 15 15 15 15 16 17 18 19 19 20 21 21 22 22 23 24 24 25 25 25 26 26 26 26 26 27 27 27 27 27 27 28 28 28 29 29 30 30 30 29 28 26 25 24 24 24 24 24 24 24 25 25 26 26 26 27 27 27 27 28 28 29 29 29 29 30
14 14 14 15 15 15 16 16 17 18 19 20 20 21 22 22 23 23 24 25 25 25 25 26 26 26 26 27 27 28 28 28 28 28 28 28 29 29 30 31 31 31 31 29 27 25 24 23 23 23 24 24 24 25 26 26 26 27 27 27 27 28 29 29 30 30 30 30 30
14 14 14 15 15 16 16 17 18 18 19 20 21 21 22 23 23 24 24 25 25 25 26 26 26 26 27 27 27 28 28 29 29 29 28 29 29 30 31 32 32 32 32 30 28 26 24 23 23 23 23 23 23 24 25 26 27 27 27 28 29 29 30 30 30 30 30 30 30
13 13 14 15 15 16 17 17 18 19 20 20 21 22 23 23 24 24 24 24 25 25 25 25 26 26 27 28 28 28 29 29 29 29 29 29 30 31 32 32 33 33 33 31 28 26 24 24 24 24 24 24 23 24 25 26 27 28 28 29 29 30 30 30 30 31 31 30 30
13 13 14 15 16 17 17 18 18 19 20 21 21 22 23 24 24 25 25 25 25 25 25 25 25 26 27 27 28 28 29 29 30 30 31 31 31 31 32 33 34 34 33 31 28 26 25 25 25 25 25 25 24 24 25 25 26 27 28 29 30 30 31 31 31 31 31 31 30
13 14 15 16 16 17 18 18 19 20 20 21 22 23 23 24 25 25 25 25 25 25 25 25 25 26 26 27 27 28 29 29 30 31 31 31 32 32 33 34 35 35 34 32 29 27 26 26 26 26 25 25 25 24 25 25 26 27 28 29 31 31 32 32 32 32 31 31 31
14 15 16 16 17 18 18 19 19 20 21 22 23 23 24 24 25 25 25 25 25 25 25 26 26 27 27 27 28 28 29 29 30 31 31 32 32 32 33 34 35 36 35 33 30 28 27 27 26 26 26 25 25 25 25 26 26 27 28 29 31 32 32 32 32 32 32 31 31
14 15 16 17 18 18 19 19 20 20 21 22 23 24 24 25 25 26 26 26 26 26 26 27 27 28 28 28 29 29 29 29 30 31 32 32 31 32 33 34 36 37 37 35 32 29 28 27 26 26 25 25 25 25 26 26 26 27 27 28 29 31 32 32 32 32 32 32 31
15 16 17 18 18 19 19 20 20 21 22 22 23 24 24 25 26 26 26 25 25 25 26 27 27 28 28 29 29 30 30 30 31 31 32 31 31 31 32 34 36 37 37 36 33 30 28 27 27 26 26 25 26 26 26 26 26 26 26 27 28 29 30 30 31 32 32 32 31
16 16 17 18 19 19 20 20 20 21 22 23 23 24 24 25 26 26 25 25 24 25 26 27 27 28 29 29 30 31 31 31 31 31 31 31 31 31 31 33 35 36 36 36 33 30 29 28 27 27 26 26 26 27 26 26 26 26 26 27 27 28 28 29 29 30 31 31 31
16 17 18 18 19 19 20 20 21 21 22 23 23 24 25 25 25 25 25 24 24 25 25 27 28 28 29 29 29 30 31 31 31 31 31 31 31 31 31 32 33 35 35 35 32 31 30 29 28 28 27 26 26 26 26 25 26 26 27 27 27 27 27 27 27 28 29 30 31
17 18 18 19 19 20 20 21 21 22 22 23 24 24 25 25 25 25 25 25 25 25 26 27 28 29 29 29 29 29 31 32 32 32 32 32 32 31 30 31 32 34 35 35 33 32 31 30 29 28 27 26 26 25 25 25 25 26 26 26 26 26 26 26 26 26 27 29 30
18 19 19 19 20 20 21 21 22 22 23 23 24 24 24 25 25 25 25 26 26 26 27 27 28 29 29 29 29 29 30 32 33 33 33 33 33 32 31 31 32 34 35 35 35 33 32 30 29 29 27 26 25 25 24 24 25 25 26 26 26 25 25 26 26 26 26 27 29
Wind_Direction
54 53 52 52 51 50 48 47 46 45 44 43 42 40 39 38 36 35 34 32 30 28 27 28 29 30 30 30 30 29 28 27 26 25 24 24 23 22 23 24 24 25 25 24 23 22 21 20 21 23 25 24 24 24 25 26 26 26 26 25 25 26 26 27 27 26 25 25 25
53 53 53 52 51 50 49 47 45 44 44 43 42 41 40 39 37 36 35 34 32 31 29 29 29 29 29 30 29 28 27 26 25 24 23 23 22 21 20 21 22 22 23 23 23 23 23 22 22 22 21 20 19 19 20 23 24 25 25 25 23 23 23 24 25 25 25 26 26
52 52 51 51 50 49 47 46 44 43 42 41 41 41 40 39 38 37 36 34 34 32 30 29 28 27 27 27 27 27 26 26 25 24 23 22 21 20 19 18 18 19 20 20 21 22 23 24 24 23 22 20 18 16 16 17 20 23 24 24 23 22 22 21 20 21 22 22 23
51 50 49 49 48 48 46 45 43 42 41 40 40 39 39 37 37 36 35 34 33 32 30 28 27 25 25 24 24 24 24 23 23 22 22 22 21 20 19 17 17 16 17 17 17 18 20 22 23 23 22 21 20 17 14 12 13 17 21 23 22 22 21 20 17 15 14 15 17
50 49 49 48 48 47 46 44 42 41 40 39 38 37 36 35 34 34 33 32 32 31 29 27 25 24 23 22 21 21 20 20 20 20 20 20 20 19 18 18 17 16 15 14 14 15 16 18 19 20 20 21 21 19 16 12 10 11 15 18 21 21 20 18 16 14 12 10 10
48 48 47 47 46 46 45 44 42 40 39 37 36 35 34 33 32 31 31 30 29 28 27 25 24 22 21 20 18 17 17 17 17 16 16 16 17 17 18 18 17 16 14 13 12 12 13 15 16 16 16 17 19 19 18 15 12 11 10 12 15 17 17 16 15 13 11 10 8
47 46 45 44 44 43 43 42 41 39 37 35 34 33 32 31 30 29 29 27 26 25 25 24 22 21 19 18 16 15 14 14 14 14 13 13 13 13 15 16 16 16 15 13 12 11 12 13 14 14 14 14 16 17 17 15 14 12 12 11 10 10 12 13 13 12 11 10 9
45 44 43 42 41 40 40 39 38 37 35 34 32 31 30 28 28 26 25 25 24 24 23 22 21 20 18 17 16 15 14 13 13 12 11 10 10 9 10 11 13 14 14 13 12 12 11 12 14 14 13 13 14 15 15 13 13 13 13 12 9 7 6 7 8 9 9 8 8
41 40 40 39 39 38 37 37 36 34 33 33 31 29 28 27 25 24 23 23 23 22 21 20 18 17 16 16 15 14 13 13 13 12 11 10 9 8 7 7 9 11 12 12 12 11 11 11 13 14 13 13 13 14 13 12 12 12 12 11 10 8 5 2 1 2 4 5 5
36 35 34 35 35 34 34 34 33 32 31 30 29 27 26 24 23 22 22 20 19 19 19 17 15 14 14 14 13 13 13 12 12 11 11 10 9 8 7 6 7 8 9 10 10 10 9 9 10 12 12 12 12 12 12 11 11 10 10 9 8 7 7 4 360 357 357 359 0
35 33 32 32 31 29 28 29 28 27 26 26 25 24 22 21 20 20 18 16 16 17 16 14 13 13 12 12 12 11 11 11 10 10 9 9 9 8 7 6 5 6 6 7 8 8 7 7 7 8 9 9 9 10 9 9 9 8 7 6 5 5 6 6 3 359 355 352 352
37 35 33 31 29 26 25 25 24 23 22 22 21 20 19 18 17 15 13 12 12 13 13 12 12 11 10 10 9 8 8 8 8 7 7 7 7 6 6 5 4 4 4 5 6 6 6 5 4 4 5 6 7 7 7 6 6 6 4 3 2 2 2 3 3 1 357 353 350
38 36 34 32 29 27 26 25 24 23 21 20 19 18 18 17 15 12 10 10 10 9 9 9 9 9 9 7 6 5 5 4 4 4 4 4 4 4 3 3 2 2 2 3 4 4 4 4 3 2 2 3 4 4 4 3 3 2 1 360 359 357 357 357 358 358 357 355 353
37 36 35 33 32 30 29 28 27 25 23 21 19 17 16 16 14 11 9 9 9 8 6 5 6 7 6 5 3 2 1 1 0 360 0 0 1 1 1 1 0 0 0 0 1 2 3 3 2 1 1 0 0 0 0 1 0 360 359 357 356 354 352 352 352 352 352 352 351
35 34 34 33 32 32 31 31 29 27 25 23 20 17 16 15 14 12 10 9 8 7 5 3 3 3 2 2 0 359 358 357 356 356 356 356 356 357 358 358 358 358 358 358 358 359 0 1 1 0 360 359 358 357 357 357 357 357 356 355 354 352 350 349 348 347 346 346 346
31 31 30 30 31 31 31 30 29 27 26 24 21 19 17 16 15 14 12 10 8 6 6 4 2 0 360 359 358 356 354 354 353 353 354 354 354 354 354 354 355 355 356 355 355 356 356 357 358 358 358 358 357 355 354 353 352 352 352 352 352 351 350 348 347 344 342 341 341
27 26 26 26 27 27 27 27 26 25 24 22 21 19 18 16 15 15 14 12 9 7 6 6 4 2 360 358 357 355 353 352 352 352 353 353 352 351 351 351 351 352 352 353 353 353 353 353 354 355 355 355 354 353 351 350 348 347 347 347 348 348 347 346 345 343 341 339 337
23 22 22 22 22 22 22 22 21 20 19 18 18 17 16 14 14 13 13 12 10 8 7 6 5 4 2 0 359 357 355 353 352 352 352 351 350 349 348 347 347 347 348 348 350 350 351 351 351 351 352 351 351 349 348 346 345 343 342 342 342 342 342 342 342 341 339 337 335
20 19 19 19 19 18 18 17 17 16 15 14 13 13 12 11 10 9 9 9 8 7 6 4 4 3 2 1 360 359 358 355 353 352 350 349 348 346 345 343 342 342 343 344 345 346 347 348 349 350 350 349 347 345 344 343 341 340 339 338 337 337 337 337 337 336 336 335 333
17 16 16 15 15 14 14 14 13 12 11 10 9 8 7 6 6 5 5 5 4 4 3 2 1 0 360 359 359 358 358 356 354 352 350 348 347 345 343 341 340 339 338 339 340 341 342 344 346 348 348 346 344 342 340 339 338 336 335 334 333 333 332 332 332 332 332 331 330
14 13 12 11 11 11 11 10 10 8 7 6 4 3 2 2 1 1 1 1 0 0 360 359 358 357 357 356 356 356 355 355 354 353 351 349 347 346 344 341 338 336 335 334 336 337 339 341 343 344 343 342 340 338 337 336 335 333 332 330 329 328 327 327 327 327 328 328 327
10 8 8 7 7 7 7 6 5 4 3 1 360 359 358 357 357 357 357 357 357 357 357 356 356 355 354 354 353 353 352 352 352 352 351 349 347 345 344 341 338 335 334 333 333 335 337 338 339 339 338 337 335 334 333 332 332 330 329 327 326 324 323 322 322 322 323 323 323
5 4 3 2 2 2 2 1 0 359 358 356 355 354 353 353 353 353 354 354 354 354 354 353 353 352 352 352 351 351 350 349 349 349 348 348 346 345 343 342 339 337 334 333 333 335 337 337 336 335 333 332 330 329 329 328 328 327 326 325 324 322 320 318 317 317 317 317 317
360 359 358 358 358 358 357 356 355 354 353 352 351 350 350 350 350 350 350 351 351 351 351 351 350 349 349 349 349 348 347 346 345 345 345 345 344 343 343 342 340 338 335 333 333 335 336 334 331 329 328 327 326 325 325 324 324 324 324 323 322 320 318 316 314 313 313 312 312
355 354 353 353 353 353 352 352 351 350 349 348 347 347 347 347 347 347 347 347 348 348 348 348 347 347 346 346 346 345 345 344 342 341 341 340 341 340 340 340 339 338 336 335 333 333 333 329 326 324 323 323 322 322 321 320 320 320 320 319 319 318 317 315 313 311 310 310 310
351 350 349 349 349 348 348 348 347 346 345 344 343 344 344 344 344 344 344 344 345 345 345 345 344 344 343 343 342 342 341 340 340 338 337 337 336 336 336 336 335 335 335 334 333 332 330 327 324 322 320 320 319 319 318 317 317 316 316 316 316 315 314 313 312 311 309 308 308
347 346 345 344 343 344 344 343 342 341 341 341 341 341 341 342 342 342 342 342 342 342 342 342 341 341 340 339 338 337 337 336 336 335 334 333 332 332 332 331 331 330 330 330 330 329 328 326 323 321 320 318 317 316 316 315 314 314 313 313 313 312 311 310 310 310 309 308 307
344 343 341 339 339 339 339 338 338 339 339 338 338 338 338 339 339 339 339 339 339 339 338 338 338 337 336 335 334 333 333 333 333 332 331 330 329 328 328 327 327 326 325 325 324 323 322 322 321 320 318 316 315 314 313 312 311 311 311 310 309 309 308 307 307 307 307 307 307
342 340 338 336 335 334 334 335 336 336 336 336 336 335 336 336 336 336 336 336 336 336 336 335 334 333 332 331 330 330 330 329 329 329 328 327 326 325 325 324 323 323 322 321 319 316 315 315 315 315 315 314 313 311 310 309 308 308 307 306 306 305 305 305 305 305 305 305 305
339 338 335 333 331 331 331 333 333 334 333 333 333 333 333 333 334 334 334 334 334 333 332 331 330 329 328 328 327 327 326 326 326 326 324 323 322 322 322 321 320 320 319 318 316 314 311 309 308 308 309 309 309 308 307 306 305 305 304 303 302 302 302 302 302 302 302 302 303
336 335 333 330 329 328 329 330 331 331 331 331 331 331 331 331 331 332 332 331 330 329 329 328 326 325 325 325 325 324 323 323 323 322 321 320 319 319 319 319 318 317 317 316 314 312 309 306 305 304 304 304 304 303 302 302 302 301 300 300 299 299 300 300 300 300 300 300 300
333 332 330 328 327 327 328 329 329 329 329 329 329 329 329 329 329 329 328 328 327 326 325 324 323 322 322 322 321 321 320 320 320 319 318 318 317 316 316 316 315 315 315 314 312 309 307 304 303 302 302 302 300 299 298 297 297 297 297 297 297 297 297 297 297 297 298 298 298
331 329 328 326 325 325 327 328 328 328 328 327 327 327 326 326 327 327 326 325 324 322 321 320 319 318 318 317 317 317 317 317 316 316 316 316 315 314 313 312 312 312 312 311 309 306 304 303 302 301 301 301 299 297 294 293 293 293 294 294 294 295 295 295 295 295 296 296 296
329 327 325 324 324 324 325 327 327 327 326 325 325 325 325 325 324 324 323 322 321 319 318 316 316 315 314 314 313 313 313 313 313 313 313 313 312 311 310 309 309 310 310 309 306 304 302 301 301 300 300 300 298 296 293 291 290 289 290 291 292 293 293 293 293 293 294 294 294
328 326 324 323 323 323 324 325 326 325 324 323 323 323 323 323 322 321 320 320 319 317 316 315 314 314 313 312 311 310 309 309 309 310 310 309 309 308 307 306 307 308 308 306 304 302 300 300 299 299 299 299 297 295 292 291 289 287 287 287 288 289 291 291 292 292 292 293 292
327 324 322 321 322 323 323 324 323 323 322 321 321 321 321 321 320 319 319 318 317 315 314 313 313 312 311 310 309 308 307 306 306 306 306 306 305 304 303 303 304 305 306 305 302 300 299 298 297 298 298 297 296 294 292 290 288 287 285 284 284 285 287 289 290 290 291 291 291
327 324 321 321 321 322 322 322 321 320 319 319 319 318 318 318 317 317 317 317 314 312 311 311 310 309 308 308 307 306 305 305 304 303 303 302 301 300 300 300 301 302 303 303 301 299 297 297 296 296 296 295 294 292 291 289 287 286 284 283 282 282 283 285 287 288 288 288 289
327 324 322 320 320 320 321 320 319 318 317 317 316 317 316 316 315 315 315 314 311 309 308 307 306 306 305 305 305 304 303 303 302 300 299 299 298 297 297 297 297 298 299 300 298 297 296 295 294 294 294 293 291 290 289 288 286 284 283 282 281 280 281 281 283 284 285 286 287
326 325 322 320 319 319 319 318 317 316 315 315 314 314 314 314 312 312 311 310 308 306 304 304 303 303 303 303 302 301 300 300 299 298 296 296 295 295 294 293 294 294 295 296 295 294 294 293 292 292 292 290 289 287 286 284 283 282 281 280 280 280 280 279 279 281 282 284 285
326 324 322 320 319 318 317 316 315 315 314 313 312 312 312 311 310 309 309 308 306 304 302 301 300 300 301 300 299 298 297 297 297 296 295 294 294 293 292 291 290 291 292 293 292 292 292 291 291 291 290 289 287 285 283 281 280 279 279 278 278 279 279 279 279 278 279 281 283
324 323 322 320 319 317 315 314 313 314 313 312 311 310 310 309 308 307 307 306 304 303 301 300 299 299 298 298 297 295 295 295 294 294 294 293 293 292 291 289 289 290 290 291 291 291 291 290 289 289 288 287 285 283 281 279 277 277 276 276 276 277 278 279 279 278 277 278 280